PRIVATE WETTERSTATION BILLIGHEIM-ALLFELD                       ZURCK
Wetterdaten: Sonntag, 06.03.2022
Datum Zeit Temp. A. Temp. A. min Temp. A. max Feuchte A. Luftdruck Regen Wind Richtung Richtung Sonnenschein ET Solar Taupunkt Windchill Windben Empfang
06.03.2022 00:00 0,5 C 0,4 C 0,5 C 62 % 1020,7 hPa 0,0 l/m 0,0 km/h (0 Bft) N 0 0 min 0,025 mm 0 W/m -5,9 C 0,5 C 0,0 km/h (0 Bft) 100 %
06.03.2022 00:10 0,6 C 0,5 C 0,6 C 61 % 1020,7 hPa 0,0 l/m 0,0 km/h (0 Bft) N 0 0 min 0,000 mm 0 W/m -6,0 C 0,6 C 0,0 km/h (0 Bft) 100 %
06.03.2022 00:20 0,6 C 0,6 C 0,6 C 62 % 1020,6 hPa 0,0 l/m 0,0 km/h (0 Bft) N 0 0 min 0,000 mm 0 W/m -5,8 C 0,6 C 0,0 km/h (0 Bft) 100 %
06.03.2022 00:30 0,7 C 0,6 C 0,7 C 62 % 1020,6 hPa 0,0 l/m 0,0 km/h (0 Bft) N 0 0 min 0,000 mm 0 W/m -5,7 C 0,7 C 0,0 km/h (0 Bft) 100 %
06.03.2022 00:40 0,8 C 0,7 C 0,8 C 63 % 1020,7 hPa 0,0 l/m 0,0 km/h (0 Bft) N 0 0 min 0,000 mm 0 W/m -5,4 C 0,8 C 0,0 km/h (0 Bft) 100 %
06.03.2022 00:50 0,8 C 0,8 C 0,8 C 64 % 1020,7 hPa 0,0 l/m 0,0 km/h (0 Bft) N 0 0 min 0,000 mm 0 W/m -5,2 C 0,8 C 0,0 km/h (0 Bft) 100 %
06.03.2022 01:00 0,8 C 0,8 C 0,8 C 64 % 1020,6 hPa 0,0 l/m 0,0 km/h (0 Bft) N 0 0 min 0,025 mm 0 W/m -5,2 C 0,8 C 0,0 km/h (0 Bft) 100 %
06.03.2022 01:10 0,9 C 0,8 C 0,9 C 64 % 1020,6 hPa 0,0 l/m 0,0 km/h (0 Bft) O-NO 67 0 min 0,000 mm 0 W/m -5,1 C 0,9 C 3,2 km/h (1 Bft) 98 %
06.03.2022 01:20 0,9 C 0,8 C 0,9 C 65 % 1020,6 hPa 0,0 l/m 0,0 km/h (0 Bft) N 0 0 min 0,000 mm 0 W/m -4,9 C 0,9 C 0,0 km/h (0 Bft) 99 %
06.03.2022 01:30 0,9 C 0,9 C 0,9 C 65 % 1020,5 hPa 0,0 l/m 0,0 km/h (0 Bft) N 0 0 min 0,000 mm 0 W/m -4,9 C 0,9 C 0,0 km/h (0 Bft) 97 %
06.03.2022 01:40 0,9 C 0,9 C 0,9 C 66 % 1020,6 hPa 0,0 l/m 0,0 km/h (0 Bft) N 0 0 min 0,000 mm 0 W/m -4,7 C 0,9 C 0,0 km/h (0 Bft) 98 %
06.03.2022 01:50 0,9 C 0,9 C 0,9 C 67 % 1020,7 hPa 0,0 l/m 0,0 km/h (0 Bft) N 0 0 min 0,000 mm 0 W/m -4,5 C 0,9 C 0,0 km/h (0 Bft) 97 %
06.03.2022 02:00 0,9 C 0,9 C 0,9 C 68 % 1020,6 hPa 0,0 l/m 0,0 km/h (0 Bft) N 0 0 min 0,025 mm 0 W/m -4,3 C 0,9 C 0,0 km/h (0 Bft) 97 %
06.03.2022 02:10 0,9 C 0,8 C 0,9 C 68 % 1020,6 hPa 0,0 l/m 0,0 km/h (0 Bft) O-NO 67 0 min 0,000 mm 0 W/m -4,3 C 0,9 C 4,8 km/h (1 Bft) 98 %
06.03.2022 02:20 0,9 C 0,9 C 0,9 C 68 % 1020,6 hPa 0,0 l/m 0,0 km/h (0 Bft) N 0 0 min 0,000 mm 0 W/m -4,3 C 0,9 C 0,0 km/h (0 Bft) 98 %
06.03.2022 02:30 0,8 C 0,8 C 0,9 C 69 % 1020,6 hPa 0,0 l/m 0,0 km/h (0 Bft) N 0 0 min 0,000 mm 0 W/m -4,2 C 0,8 C 0,0 km/h (0 Bft) 89 %
06.03.2022 02:40 0,9 C 0,8 C 0,9 C 69 % 1020,5 hPa 0,0 l/m 0,0 km/h (0 Bft) N 0 0 min 0,000 mm 0 W/m -4,1 C 0,9 C 0,0 km/h (0 Bft) 98 %
06.03.2022 02:50 0,9 C 0,9 C 0,9 C 70 % 1020,5 hPa 0,0 l/m 0,0 km/h (0 Bft) N 0 0 min 0,000 mm 0 W/m -3,9 C 0,9 C 0,0 km/h (0 Bft) 98 %
06.03.2022 03:00 0,8 C 0,8 C 0,9 C 70 % 1020,5 hPa 0,0 l/m 0,0 km/h (0 Bft) N 0 0 min 0,025 mm 0 W/m -4,0 C 0,8 C 0,0 km/h (0 Bft) 97 %
06.03.2022 03:10 0,7 C 0,7 C 0,8 C 71 % 1020,4 hPa 0,0 l/m 0,0 km/h (0 Bft) N 0 0 min 0,000 mm 0 W/m -3,9 C 0,7 C 0,0 km/h (0 Bft) 98 %
06.03.2022 03:20 0,7 C 0,7 C 0,7 C 70 % 1020,4 hPa 0,0 l/m 0,0 km/h (0 Bft) N 0 0 min 0,000 mm 0 W/m -4,1 C 0,7 C 0,0 km/h (0 Bft) 97 %
06.03.2022 03:30 0,6 C 0,6 C 0,7 C 70 % 1020,4 hPa 0,0 l/m 0,0 km/h (0 Bft) N 0 0 min 0,000 mm 0 W/m -4,2 C 0,6 C 0,0 km/h (0 Bft) 98 %
06.03.2022 03:40 0,4 C 0,4 C 0,6 C 72 % 1020,4 hPa 0,0 l/m 0,0 km/h (0 Bft) N 0 0 min 0,000 mm 0 W/m -4,0 C 0,4 C 0,0 km/h (0 Bft) 98 %
06.03.2022 03:50 0,3 C 0,3 C 0,4 C 72 % 1020,4 hPa 0,0 l/m 0,0 km/h (0 Bft) N 0 0 min 0,000 mm 0 W/m -4,1 C 0,3 C 0,0 km/h (0 Bft) 97 %
06.03.2022 04:00 0,2 C 0,2 C 0,3 C 72 % 1020,3 hPa 0,0 l/m 0,0 km/h (0 Bft) N 0 0 min 0,025 mm 0 W/m -4,2 C 0,2 C 0,0 km/h (0 Bft) 98 %
06.03.2022 04:10 0,1 C 0,1 C 0,2 C 73 % 1020,4 hPa 0,0 l/m 0,0 km/h (0 Bft) N 0 0 min 0,000 mm 0 W/m -4,2 C 0,1 C 0,0 km/h (0 Bft) 97 %
06.03.2022 04:20 0,0 C 0,0 C 0,1 C 73 % 1020,5 hPa 0,0 l/m 0,0 km/h (0 Bft) NO 45 0 min 0,000 mm 0 W/m -4,2 C 0,0 C 3,2 km/h (1 Bft) 98 %
06.03.2022 04:30 0,1 C 0,0 C 0,1 C 73 % 1020,5 hPa 0,0 l/m 0,0 km/h (0 Bft) N 0 0 min 0,000 mm 0 W/m -4,2 C 0,1 C 0,0 km/h (0 Bft) 98 %
06.03.2022 04:40 0,1 C 0,1 C 0,1 C 74 % 1020,6 hPa 0,0 l/m 0,0 km/h (0 Bft) N 0 0 min 0,000 mm 0 W/m -4,0 C 0,1 C 0,0 km/h (0 Bft) 98 %
06.03.2022 04:50 0,1 C 0,0 C 0,1 C 74 % 1020,6 hPa 0,0 l/m 0,0 km/h (0 Bft) N 0 0 min 0,000 mm 0 W/m -4,0 C 0,1 C 0,0 km/h (0 Bft) 98 %
06.03.2022 05:00 0,1 C 0,1 C 0,1 C 75 % 1020,7 hPa 0,0 l/m 0,0 km/h (0 Bft) N 0 0 min 0,000 mm 0 W/m -3,8 C 0,1 C 0,0 km/h (0 Bft) 97 %
06.03.2022 05:10 0,0 C 0,0 C 0,1 C 76 % 1020,8 hPa 0,0 l/m 0,0 km/h (0 Bft) N 0 0 min 0,000 mm 0 W/m -3,7 C 0,0 C 0,0 km/h (0 Bft) 97 %
06.03.2022 05:20 -0,1 C -0,1 C 0,0 C 77 % 1020,9 hPa 0,0 l/m 0,0 km/h (0 Bft) N 0 0 min 0,000 mm 0 W/m -3,6 C -0,1 C 0,0 km/h (0 Bft) 98 %
06.03.2022 05:30 -0,2 C -0,2 C -0,1 C 77 % 1021,0 hPa 0,0 l/m 0,0 km/h (0 Bft) N 0 0 min 0,000 mm 0 W/m -3,7 C -0,2 C 0,0 km/h (0 Bft) 98 %
06.03.2022 05:40 -0,2 C -0,2 C -0,2 C 77 % 1021,0 hPa 0,0 l/m 0,0 km/h (0 Bft) N 0 0 min 0,000 mm 0 W/m -3,7 C -0,2 C 0,0 km/h (0 Bft) 97 %
06.03.2022 05:50 -0,4 C -0,4 C -0,2 C 78 % 1021,1 hPa 0,0 l/m 0,0 km/h (0 Bft) N 0 0 min 0,000 mm 0 W/m -3,8 C -0,4 C 0,0 km/h (0 Bft) 98 %
06.03.2022 06:00 -0,6 C -0,6 C -0,4 C 78 % 1021,2 hPa 0,0 l/m 0,0 km/h (0 Bft) N 0 0 min 0,000 mm 0 W/m -3,9 C -0,6 C 0,0 km/h (0 Bft) 98 %
06.03.2022 06:10 -0,7 C -0,7 C -0,6 C 79 % 1021,3 hPa 0,0 l/m 0,0 km/h (0 Bft) N 0 0 min 0,000 mm 0 W/m -3,9 C -0,7 C 0,0 km/h (0 Bft) 97 %
06.03.2022 06:20 -1,0 C -1,0 C -0,7 C 80 % 1021,3 hPa 0,0 l/m 0,0 km/h (0 Bft) N 0 0 min 0,000 mm 0 W/m -4,0 C -1,0 C 0,0 km/h (0 Bft) 98 %
06.03.2022 06:30 -1,2 C -1,2 C -1,0 C 80 % 1021,4 hPa 0,0 l/m 0,0 km/h (0 Bft) N 0 0 min 0,000 mm 0 W/m -4,2 C -1,2 C 0,0 km/h (0 Bft) 97 %
06.03.2022 06:40 -1,3 C -1,3 C -1,2 C 81 % 1021,3 hPa 0,0 l/m 0,0 km/h (0 Bft) N 0 0 min 0,000 mm 0 W/m -4,1 C -1,3 C 0,0 km/h (0 Bft) 88 %
06.03.2022 06:50 -1,4 C -1,4 C -1,3 C 80 % 1021,3 hPa 0,0 l/m 0,0 km/h (0 Bft) N 0 0 min 0,000 mm 0 W/m -4,4 C -1,4 C 0,0 km/h (0 Bft) 98 %
06.03.2022 07:00 -1,3 C -1,4 C -1,3 C 80 % 1021,3 hPa 0,0 l/m 0,0 km/h (0 Bft) N 0 0 min 0,000 mm 5 W/m -4,3 C -1,3 C 0,0 km/h (0 Bft) 98 %
06.03.2022 07:10 -1,3 C -1,3 C -1,3 C 80 % 1021,5 hPa 0,0 l/m 0,0 km/h (0 Bft) N 0 0 min 0,000 mm 12 W/m -4,3 C -1,3 C 0,0 km/h (0 Bft) 98 %
06.03.2022 07:20 -1,3 C -1,3 C -1,3 C 80 % 1021,6 hPa 0,0 l/m 0,0 km/h (0 Bft) N 0 0 min 0,000 mm 18 W/m -4,3 C -1,3 C 0,0 km/h (0 Bft) 98 %
06.03.2022 07:30 -1,4 C -1,4 C -1,3 C 80 % 1021,6 hPa 0,0 l/m 0,0 km/h (0 Bft) N 0 0 min 0,000 mm 25 W/m -4,4 C -1,4 C 0,0 km/h (0 Bft) 97 %
06.03.2022 07:40 -1,5 C -1,5 C -1,4 C 81 % 1021,6 hPa 0,0 l/m 0,0 km/h (0 Bft) N 0 0 min 0,000 mm 33 W/m -4,3 C -1,5 C 0,0 km/h (0 Bft) 98 %
06.03.2022 07:50 -1,5 C -1,6 C -1,5 C 82 % 1021,7 hPa 0,0 l/m 0,0 km/h (0 Bft) N 0 0 min 0,000 mm 44 W/m -4,2 C -1,5 C 0,0 km/h (0 Bft) 99 %
06.03.2022 08:00 -1,4 C -1,5 C -1,4 C 81 % 1021,7 hPa 0,0 l/m 0,0 km/h (0 Bft) N 0 0 min 0,000 mm 49 W/m -4,2 C -1,4 C 0,0 km/h (0 Bft) 100 %
06.03.2022 08:10 -1,3 C -1,4 C -1,3 C 81 % 1021,8 hPa 0,0 l/m 0,0 km/h (0 Bft) N 0 0 min 0,000 mm 62 W/m -4,1 C -1,3 C 0,0 km/h (0 Bft) 100 %
06.03.2022 08:20 -1,1 C -1,3 C -1,1 C 81 % 1021,9 hPa 0,0 l/m 0,0 km/h (0 Bft) N 0 0 min 0,000 mm 123 W/m -3,9 C -1,1 C 0,0 km/h (0 Bft) 99 %
06.03.2022 08:30 -0,6 C -1,0 C -0,6 C 80 % 1021,8 hPa 0,0 l/m 0,0 km/h (0 Bft) N 0 10 min 0,000 mm 193 W/m -3,6 C -0,6 C 0,0 km/h (0 Bft) 100 %
06.03.2022 08:40 0,3 C -0,5 C 0,3 C 77 % 1021,8 hPa 0,0 l/m 0,0 km/h (0 Bft) NO 45 10 min 0,000 mm 216 W/m -3,2 C 0,3 C 8,0 km/h (2 Bft) 99 %
06.03.2022 08:50 1,0 C 0,3 C 1,0 C 74 % 1022,0 hPa 0,0 l/m 0,0 km/h (0 Bft) N 0 10 min 0,000 mm 243 W/m -3,1 C 1,0 C 0,0 km/h (0 Bft) 100 %
06.03.2022 09:00 1,4 C 1,0 C 1,4 C 73 % 1022,0 hPa 0,0 l/m 0,0 km/h (0 Bft) NO 45 10 min 0,051 mm 269 W/m -2,9 C 1,4 C 4,8 km/h (1 Bft) 100 %
06.03.2022 09:10 1,6 C 1,4 C 1,6 C 71 % 1022,1 hPa 0,0 l/m 0,0 km/h (0 Bft) NO 45 10 min 0,000 mm 294 W/m -3,1 C 1,6 C 4,8 km/h (1 Bft) 100 %
06.03.2022 09:20 2,1 C 1,6 C 2,1 C 69 % 1022,1 hPa 0,0 l/m 0,0 km/h (0 Bft) N-NO 22 10 min 0,000 mm 315 W/m -3,0 C 2,1 C 8,0 km/h (2 Bft) 100 %
06.03.2022 09:30 2,4 C 2,0 C 2,4 C 67 % 1022,1 hPa 0,0 l/m 1,6 km/h (1 Bft) NO 45 10 min 0,000 mm 338 W/m -3,1 C 2,4 C 9,7 km/h (2 Bft) 100 %
06.03.2022 09:40 2,9 C 2,5 C 2,9 C 66 % 1022,1 hPa 0,0 l/m 0,0 km/h (0 Bft) N 0 10 min 0,000 mm 364 W/m -2,8 C 2,9 C 0,0 km/h (0 Bft) 100 %
06.03.2022 09:50 3,1 C 2,9 C 3,1 C 64 % 1022,1 hPa 0,0 l/m 0,0 km/h (0 Bft) N-NO 22 10 min 0,000 mm 385 W/m -3,0 C 3,1 C 1,6 km/h (1 Bft) 98 %
06.03.2022 10:00 3,2 C 3,1 C 3,2 C 64 % 1022,1 hPa 0,0 l/m 0,0 km/h (0 Bft) N-NO 22 10 min 0,127 mm 404 W/m -2,9 C 3,2 C 9,7 km/h (2 Bft) 98 %
06.03.2022 10:10 3,5 C 3,2 C 3,5 C 59 % 1022,1 hPa 0,0 l/m 1,6 km/h (1 Bft) NO 45 10 min 0,000 mm 425 W/m -3,7 C 3,5 C 8,0 km/h (2 Bft) 97 %
06.03.2022 10:20 3,6 C 3,5 C 3,6 C 60 % 1022,0 hPa 0,0 l/m 1,6 km/h (1 Bft) NO 45 10 min 0,000 mm 452 W/m -3,4 C 3,6 C 14,5 km/h (3 Bft) 97 %
06.03.2022 10:30 3,8 C 3,6 C 3,8 C 58 % 1021,9 hPa 0,0 l/m 1,6 km/h (1 Bft) NO 45 10 min 0,000 mm 464 W/m -3,7 C 3,8 C 9,7 km/h (2 Bft) 98 %
06.03.2022 10:40 3,9 C 3,8 C 3,9 C 57 % 1021,9 hPa 0,0 l/m 1,6 km/h (1 Bft) NO 45 10 min 0,000 mm 490 W/m -3,8 C 3,9 C 9,7 km/h (2 Bft) 98 %
06.03.2022 10:50 4,2 C 3,9 C 4,2 C 55 % 1022,0 hPa 0,0 l/m 1,6 km/h (1 Bft) NO 45 10 min 0,000 mm 536 W/m -4,0 C 4,2 C 14,5 km/h (3 Bft) 97 %
06.03.2022 11:00 4,4 C 4,2 C 4,4 C 54 % 1022,0 hPa 0,0 l/m 1,6 km/h (1 Bft) NO 45 10 min 0,178 mm 617 W/m -4,1 C 4,4 C 11,3 km/h (2 Bft) 97 %
06.03.2022 11:10 3,7 C 3,7 C 4,4 C 56 % 1022,1 hPa 0,0 l/m 1,6 km/h (1 Bft) NO 45 10 min 0,000 mm 192 W/m -4,2 C 3,7 C 11,3 km/h (2 Bft) 97 %
06.03.2022 11:20 3,3 C 3,3 C 3,7 C 54 % 1022,2 hPa 0,0 l/m 1,6 km/h (1 Bft) NO 45 10 min 0,000 mm 214 W/m -5,1 C 3,3 C 14,5 km/h (3 Bft) 98 %
06.03.2022 11:30 3,4 C 3,3 C 3,4 C 53 % 1022,2 hPa 0,0 l/m 1,6 km/h (1 Bft) NO 45 10 min 0,000 mm 204 W/m -5,3 C 3,4 C 16,1 km/h (3 Bft) 98 %
06.03.2022 11:40 3,3 C 3,3 C 3,4 C 52 % 1022,2 hPa 0,0 l/m 0,0 km/h (0 Bft) NO 45 10 min 0,000 mm 197 W/m -5,6 C 3,3 C 9,7 km/h (2 Bft) 99 %
06.03.2022 11:50 3,5 C 3,3 C 3,5 C 51 % 1022,1 hPa 0,0 l/m 0,0 km/h (0 Bft) N 0 10 min 0,000 mm 221 W/m -5,7 C 3,5 C 0,0 km/h (0 Bft) 100 %
06.03.2022 12:00 3,7 C 3,3 C 3,7 C 53 % 1022,2 hPa 0,0 l/m 0,0 km/h (0 Bft) O-NO 63 10 min 0,052 mm 234 W/m -5,0 C 3,7 C 0,0 km/h (0 Bft) 99 %
06.03.2022 12:10 3,8 C 3,7 C 3,8 C 54 % 1022,1 hPa 0,0 l/m 0,4 km/h (0 Bft) NO 46 10 min 0,000 mm 380 W/m -4,6 C 3,8 C 8,0 km/h (2 Bft) 98 %
06.03.2022 12:20 4,1 C 3,8 C 4,2 C 52 % 1022,1 hPa 0,0 l/m 0,2 km/h (0 Bft) N-NO 24 10 min 0,000 mm 281 W/m -4,9 C 4,1 C 8,0 km/h (2 Bft) 98 %
06.03.2022 12:30 4,3 C 4,1 C 4,3 C 52 % 1021,9 hPa 0,0 l/m 0,0 km/h (0 Bft) NO 36 10 min 0,000 mm 318 W/m -4,7 C 4,3 C 0,0 km/h (0 Bft) 98 %
06.03.2022 12:40 4,3 C 4,2 C 4,3 C 53 % 1021,8 hPa 0,0 l/m 0,8 km/h (0 Bft) NO 55 10 min 0,000 mm 246 W/m -4,4 C 4,3 C 6,4 km/h (2 Bft) 97 %
06.03.2022 12:50 4,1 C 4,1 C 4,3 C 53 % 1021,8 hPa 0,0 l/m 0,4 km/h (0 Bft) O-NO 67 10 min 0,000 mm 213 W/m -4,6 C 4,1 C 8,0 km/h (2 Bft) 97 %
06.03.2022 13:00 3,9 C 3,9 C 4,1 C 53 % 1021,8 hPa 0,0 l/m 1,0 km/h (0 Bft) NO 44 10 min 0,102 mm 209 W/m -4,8 C 3,9 C 6,4 km/h (2 Bft) 98 %
06.03.2022 13:10 4,0 C 3,9 C 4,1 C 53 % 1021,7 hPa 0,0 l/m 0,2 km/h (0 Bft) N-NO 31 10 min 0,000 mm 265 W/m -4,7 C 4,0 C 6,4 km/h (2 Bft) 97 %
06.03.2022 13:20 4,2 C 4,0 C 4,2 C 51 % 1021,7 hPa 0,0 l/m 0,7 km/h (0 Bft) O 83 10 min 0,000 mm 200 W/m -5,0 C 4,2 C 9,7 km/h (2 Bft) 97 %
06.03.2022 13:30 4,1 C 4,1 C 4,2 C 54 % 1021,6 hPa 0,0 l/m 0,2 km/h (0 Bft) NO 47 10 min 0,000 mm 213 W/m -4,4 C 4,1 C 4,8 km/h (1 Bft) 90 %
06.03.2022 13:40 3,9 C 3,9 C 4,1 C 54 % 1021,6 hPa 0,0 l/m 0,6 km/h (0 Bft) O 82 10 min 0,000 mm 223 W/m -4,5 C 3,9 C 8,0 km/h (2 Bft) 97 %
06.03.2022 13:50 3,9 C 3,9 C 4,0 C 52 % 1021,6 hPa 0,0 l/m 0,5 km/h (0 Bft) N-NO 26 10 min 0,000 mm 202 W/m -5,0 C 3,9 C 11,3 km/h (2 Bft) 98 %
06.03.2022 14:00 3,9 C 3,9 C 3,9 C 54 % 1021,5 hPa 0,0 l/m 1,1 km/h (1 Bft) NO 40 10 min 0,102 mm 213 W/m -4,5 C 3,9 C 9,7 km/h (2 Bft) 97 %
06.03.2022 14:10 4,0 C 3,9 C 4,0 C 53 % 1021,4 hPa 0,0 l/m 0,0 km/h (0 Bft) N-NO 33 10 min 0,000 mm 250 W/m -4,7 C 4,0 C 3,2 km/h (1 Bft) 97 %
06.03.2022 14:20 4,1 C 4,0 C 4,1 C 55 % 1021,4 hPa 0,0 l/m 0,0 km/h (0 Bft) NO 36 10 min 0,000 mm 195 W/m -4,1 C 4,1 C 0,0 km/h (0 Bft) 98 %
06.03.2022 14:30 4,1 C 4,1 C 4,2 C 53 % 1021,4 hPa 0,0 l/m 0,0 km/h (0 Bft) NO 37 10 min 0,000 mm 163 W/m -4,6 C 4,1 C 0,0 km/h (0 Bft) 97 %
06.03.2022 14:40 4,1 C 4,0 C 4,1 C 53 % 1021,5 hPa 0,0 l/m 0,6 km/h (0 Bft) N-NO 15 10 min 0,000 mm 167 W/m -4,6 C 4,1 C 8,0 km/h (2 Bft) 98 %
06.03.2022 14:50 3,9 C 3,9 C 4,1 C 54 % 1021,4 hPa 0,0 l/m 0,6 km/h (0 Bft) N-NO 30 10 min 0,000 mm 271 W/m -4,5 C 3,9 C 8,0 km/h (2 Bft) 97 %
06.03.2022 15:00 4,2 C 3,9 C 4,2 C 53 % 1021,3 hPa 0,0 l/m 0,4 km/h (0 Bft) O-NO 72 10 min 0,000 mm 287 W/m -4,5 C 4,2 C 6,4 km/h (2 Bft) 98 %
06.03.2022 15:10 4,3 C 4,2 C 4,3 C 53 % 1021,3 hPa 0,0 l/m 0,1 km/h (0 Bft) O-NO 65 10 min 0,101 mm 181 W/m -4,4 C 4,3 C 4,8 km/h (1 Bft) 97 %
06.03.2022 15:20 4,2 C 4,2 C 4,3 C 50 % 1021,2 hPa 0,0 l/m 0,5 km/h (0 Bft) O 93 10 min 0,000 mm 220 W/m -5,3 C 4,2 C 6,4 km/h (2 Bft) 97 %
06.03.2022 15:30 4,2 C 4,2 C 4,3 C 51 % 1021,3 hPa 0,0 l/m 0,5 km/h (0 Bft) NO 53 0 min 0,000 mm 118 W/m -5,0 C 4,2 C 9,7 km/h (2 Bft) 97 %
06.03.2022 15:40 4,1 C 4,1 C 4,2 C 54 % 1021,3 hPa 0,0 l/m 0,2 km/h (0 Bft) NO 44 0 min 0,000 mm 104 W/m -4,4 C 4,1 C 8,0 km/h (2 Bft) 97 %
06.03.2022 15:50 3,8 C 3,8 C 4,1 C 55 % 1021,3 hPa 0,0 l/m 0,0 km/h (0 Bft) NO 44 0 min 0,000 mm 102 W/m -4,4 C 3,8 C 0,0 km/h (0 Bft) 97 %
06.03.2022 16:00 3,7 C 3,7 C 3,8 C 54 % 1021,5 hPa 0,0 l/m 0,0 km/h (0 Bft) NO 44 0 min 0,076 mm 98 W/m -4,7 C 3,7 C 3,2 km/h (1 Bft) 97 %
06.03.2022 16:10 3,4 C 3,4 C 3,7 C 55 % 1021,5 hPa 0,0 l/m 1,7 km/h (1 Bft) NO 40 0 min 0,000 mm 70 W/m -4,8 C 3,4 C 8,0 km/h (2 Bft) 98 %
06.03.2022 16:20 3,3 C 3,3 C 3,4 C 56 % 1021,5 hPa 0,0 l/m 0,0 km/h (0 Bft) NO 38 0 min 0,000 mm 58 W/m -4,6 C 3,3 C 0,0 km/h (0 Bft) 97 %
06.03.2022 16:30 3,3 C 3,3 C 3,3 C 55 % 1021,5 hPa 0,0 l/m 0,6 km/h (0 Bft) NO 37 0 min 0,000 mm 51 W/m -4,9 C 3,3 C 12,9 km/h (3 Bft) 98 %
06.03.2022 16:40 3,3 C 3,3 C 3,3 C 55 % 1021,5 hPa 0,0 l/m 0,8 km/h (0 Bft) N-NO 14 0 min 0,000 mm 46 W/m -4,9 C 3,3 C 11,3 km/h (2 Bft) 97 %
06.03.2022 16:50 3,2 C 3,2 C 3,3 C 56 % 1021,5 hPa 0,0 l/m 0,0 km/h (0 Bft) N-NO 14 0 min 0,000 mm 39 W/m -4,7 C 3,2 C 0,0 km/h (0 Bft) 90 %
06.03.2022 17:00 3,1 C 3,1 C 3,2 C 54 % 1021,6 hPa 0,0 l/m 0,0 km/h (0 Bft) N-NO 31 0 min 0,000 mm 30 W/m -5,3 C 3,1 C 3,2 km/h (1 Bft) 99 %
06.03.2022 17:10 2,9 C 2,9 C 3,1 C 56 % 1021,5 hPa 0,0 l/m 0,0 km/h (0 Bft) N-NO 33 0 min 0,025 mm 23 W/m -5,0 C 2,9 C 0,0 km/h (0 Bft) 100 %
06.03.2022 17:20 2,8 C 2,8 C 2,9 C 56 % 1021,6 hPa 0,0 l/m 0,0 km/h (0 Bft) N-NO 30 0 min 0,001 mm 21 W/m -5,1 C 2,8 C 0,0 km/h (0 Bft) 100 %
06.03.2022 17:30 2,7 C 2,7 C 2,8 C 55 % 1021,5 hPa 0,0 l/m 0,0 km/h (0 Bft) N-NO 27 0 min 0,000 mm 21 W/m -5,4 C 2,7 C 0,0 km/h (0 Bft) 100 %
06.03.2022 17:40 2,6 C 2,6 C 2,7 C 56 % 1021,7 hPa 0,0 l/m 0,0 km/h (0 Bft) N-NO 32 0 min 0,000 mm 12 W/m -5,3 C 2,6 C 0,0 km/h (0 Bft) 100 %
06.03.2022 17:50 2,5 C 2,5 C 2,6 C 58 % 1021,7 hPa 0,0 l/m 0,1 km/h (0 Bft) N-NO 31 0 min 0,000 mm 9 W/m -4,9 C 2,5 C 6,4 km/h (2 Bft) 100 %
06.03.2022 18:00 2,4 C 2,4 C 2,5 C 55 % 1021,7 hPa 0,0 l/m 0,0 km/h (0 Bft) NO 34 0 min 0,000 mm 5 W/m -5,7 C 2,4 C 0,0 km/h (0 Bft) 100 %
06.03.2022 18:10 2,3 C 2,3 C 2,4 C 57 % 1021,8 hPa 0,0 l/m 0,0 km/h (0 Bft) NO 35 0 min 0,000 mm 0 W/m -5,3 C 2,3 C 0,0 km/h (0 Bft) 100 %
06.03.2022 18:20 2,1 C 2,1 C 2,3 C 59 % 1021,9 hPa 0,0 l/m 0,0 km/h (0 Bft) NO 35 0 min 0,000 mm 0 W/m -5,1 C 2,1 C 0,0 km/h (0 Bft) 100 %
06.03.2022 18:30 1,9 C 1,9 C 2,1 C 58 % 1021,9 hPa 0,0 l/m 0,0 km/h (0 Bft) NO 35 0 min 0,000 mm 0 W/m -5,5 C 1,9 C 0,0 km/h (0 Bft) 100 %
06.03.2022 18:40 1,8 C 1,8 C 1,9 C 57 % 1022,0 hPa 0,0 l/m 0,0 km/h (0 Bft) NO 35 0 min 0,000 mm 0 W/m -5,8 C 1,8 C 0,0 km/h (0 Bft) 100 %
06.03.2022 18:50 1,8 C 1,8 C 1,8 C 57 % 1022,0 hPa 0,0 l/m 0,0 km/h (0 Bft) NO 35 0 min 0,000 mm 0 W/m -5,8 C 1,8 C 0,0 km/h (0 Bft) 100 %
06.03.2022 19:00 1,8 C 1,8 C 1,8 C 57 % 1022,1 hPa 0,0 l/m 0,0 km/h (0 Bft) NO 41 0 min 0,000 mm 0 W/m -5,8 C 1,8 C 0,0 km/h (0 Bft) 100 %
06.03.2022 19:10 1,8 C 1,8 C 1,8 C 58 % 1022,1 hPa 0,0 l/m 0,0 km/h (0 Bft) NO 46 0 min 0,000 mm 0 W/m -5,6 C 1,8 C 0,0 km/h (0 Bft) 100 %
06.03.2022 19:20 1,8 C 1,8 C 1,8 C 60 % 1022,1 hPa 0,0 l/m 0,0 km/h (0 Bft) NO 46 0 min 0,000 mm 0 W/m -5,1 C 1,8 C 0,0 km/h (0 Bft) 100 %
06.03.2022 19:30 1,7 C 1,7 C 1,8 C 62 % 1022,3 hPa 0,0 l/m 0,0 km/h (0 Bft) NO 46 0 min 0,000 mm 0 W/m -4,8 C 1,7 C 0,0 km/h (0 Bft) 100 %
06.03.2022 19:40 1,6 C 1,6 C 1,7 C 63 % 1022,3 hPa 0,0 l/m 0,0 km/h (0 Bft) NO 53 0 min 0,000 mm 0 W/m -4,7 C 1,6 C 3,2 km/h (1 Bft) 100 %
06.03.2022 19:50 1,6 C 1,6 C 1,6 C 63 % 1022,4 hPa 0,0 l/m 0,0 km/h (0 Bft) NO 47 0 min 0,000 mm 0 W/m -4,7 C 1,6 C 0,0 km/h (0 Bft) 100 %
06.03.2022 20:00 1,5 C 1,5 C 1,6 C 63 % 1022,3 hPa 0,0 l/m 0,0 km/h (0 Bft) NO 47 0 min 0,000 mm 0 W/m -4,8 C 1,5 C 0,0 km/h (0 Bft) 91 %
06.03.2022 20:10 1,4 C 1,4 C 1,5 C 64 % 1022,4 hPa 0,0 l/m 0,0 km/h (0 Bft) NO 47 0 min 0,025 mm 0 W/m -4,6 C 1,4 C 0,0 km/h (0 Bft) 100 %
06.03.2022 20:20 1,4 C 1,4 C 1,4 C 64 % 1022,5 hPa 0,0 l/m 0,0 km/h (0 Bft) NO 47 0 min 0,000 mm 0 W/m -4,6 C 1,4 C 0,0 km/h (0 Bft) 99 %
06.03.2022 20:30 1,4 C 1,4 C 1,4 C 64 % 1022,5 hPa 0,0 l/m 0,0 km/h (0 Bft) NO 47 0 min 0,000 mm 0 W/m -4,6 C 1,4 C 0,0 km/h (0 Bft) 100 %
06.03.2022 20:40 1,4 C 1,4 C 1,4 C 65 % 1022,7 hPa 0,0 l/m 0,0 km/h (0 Bft) NO 47 0 min 0,000 mm 0 W/m -4,4 C 1,4 C 0,0 km/h (0 Bft) 100 %
06.03.2022 20:50 1,3 C 1,3 C 1,4 C 65 % 1022,6 hPa 0,0 l/m 0,0 km/h (0 Bft) NO 47 0 min 0,000 mm 0 W/m -4,5 C 1,3 C 0,0 km/h (0 Bft) 100 %
06.03.2022 21:00 1,2 C 1,2 C 1,3 C 65 % 1022,8 hPa 0,0 l/m 0,4 km/h (0 Bft) NO 46 0 min 0,000 mm 0 W/m -4,6 C 1,2 C 4,8 km/h (1 Bft) 100 %
06.03.2022 21:10 1,2 C 1,2 C 1,2 C 66 % 1022,9 hPa 0,0 l/m 0,0 km/h (0 Bft) NO 45 0 min 0,000 mm 0 W/m -4,4 C 1,2 C 4,8 km/h (1 Bft) 100 %
06.03.2022 21:20 1,1 C 1,1 C 1,2 C 66 % 1022,9 hPa 0,0 l/m 0,0 km/h (0 Bft) N 0 0 min 0,000 mm 0 W/m -4,5 C 1,1 C 0,0 km/h (0 Bft) 100 %
06.03.2022 21:30 1,0 C 1,0 C 1,1 C 65 % 1022,9 hPa 0,0 l/m 0,0 km/h (0 Bft) N 0 0 min 0,000 mm 0 W/m -4,8 C 1,0 C 0,0 km/h (0 Bft) 100 %
06.03.2022 21:40 1,0 C 0,9 C 1,0 C 65 % 1022,9 hPa 0,0 l/m 0,0 km/h (0 Bft) NO 45 0 min 0,000 mm 0 W/m -4,8 C 1,0 C 4,8 km/h (1 Bft) 100 %
06.03.2022 21:50 0,9 C 0,9 C 1,0 C 63 % 1023,0 hPa 0,0 l/m 0,0 km/h (0 Bft) N 0 0 min 0,000 mm 0 W/m -5,3 C 0,9 C 0,0 km/h (0 Bft) 90 %
06.03.2022 22:00 0,9 C 0,9 C 0,9 C 63 % 1023,1 hPa 0,0 l/m 0,0 km/h (0 Bft) N 0 0 min 0,025 mm 0 W/m -5,3 C 0,9 C 0,0 km/h (0 Bft) 100 %
06.03.2022 22:10 0,8 C 0,8 C 0,9 C 62 % 1023,3 hPa 0,0 l/m 0,0 km/h (0 Bft) N 0 0 min 0,000 mm 0 W/m -5,6 C 0,8 C 0,0 km/h (0 Bft) 100 %
06.03.2022 22:20 0,8 C 0,8 C 0,8 C 63 % 1023,3 hPa 0,0 l/m 0,0 km/h (0 Bft) N 0 0 min 0,000 mm 0 W/m -5,4 C 0,8 C 0,0 km/h (0 Bft) 100 %
06.03.2022 22:30 0,7 C 0,7 C 0,8 C 64 % 1023,2 hPa 0,0 l/m 0,0 km/h (0 Bft) N 0 0 min 0,000 mm 0 W/m -5,3 C 0,7 C 0,0 km/h (0 Bft) 100 %
06.03.2022 22:40 0,7 C 0,7 C 0,8 C 64 % 1023,2 hPa 0,0 l/m 0,0 km/h (0 Bft) N 0 0 min 0,000 mm 0 W/m -5,3 C 0,7 C 0,0 km/h (0 Bft) 100 %
06.03.2022 22:50 0,6 C 0,6 C 0,7 C 64 % 1023,3 hPa 0,0 l/m 0,0 km/h (0 Bft) N 0 0 min 0,000 mm 0 W/m -5,4 C 0,6 C 0,0 km/h (0 Bft) 100 %
06.03.2022 23:00 0,6 C 0,6 C 0,7 C 64 % 1023,3 hPa 0,0 l/m 0,0 km/h (0 Bft) N 0 0 min 0,025 mm 0 W/m -5,4 C 0,6 C 0,0 km/h (0 Bft) 100 %
06.03.2022 23:10 0,6 C 0,6 C 0,6 C 65 % 1023,4 hPa 0,0 l/m 0,0 km/h (0 Bft) N 0 0 min 0,000 mm 0 W/m -5,2 C 0,6 C 0,0 km/h (0 Bft) 100 %
06.03.2022 23:20 0,5 C 0,5 C 0,6 C 67 % 1023,3 hPa 0,0 l/m 0,0 km/h (0 Bft) N 0 0 min 0,000 mm 0 W/m -4,9 C 0,5 C 0,0 km/h (0 Bft) 87 %
06.03.2022 23:30 0,4 C 0,4 C 0,5 C 67 % 1023,4 hPa 0,0 l/m 0,0 km/h (0 Bft) N 0 0 min 0,000 mm 0 W/m -5,0 C 0,4 C 0,0 km/h (0 Bft) 100 %
06.03.2022 23:40 0,3 C 0,3 C 0,4 C 69 % 1023,5 hPa 0,0 l/m 0,0 km/h (0 Bft) N 0 0 min 0,000 mm 0 W/m -4,7 C 0,3 C 0,0 km/h (0 Bft) 100 %
06.03.2022 23:50 0,3 C 0,3 C 0,3 C 68 % 1023,4 hPa 0,0 l/m 0,0 km/h (0 Bft) N 0 0 min 0,000 mm 0 W/m -4,9 C 0,3 C 0,0 km/h (0 Bft) 100 %
_ Min-Zeit 07:50 07:50 07:50 15:20 04:00 - 00:00 - - - - - 00:10 07:40 00:00 23:20
Minimum _ -1,6 C -1,6 C -1,5 C 50 % 1020,3 hPa - 0,0 km/h (0 Bft) - - - - - -6,0 C -1,5 C 0,0 km/h (0 Bft) 87 %
_ Max-Zeit 11:00 11:00 11:00 07:50 23:40 00:00 16:10 - - 08:30 11:00 11:00 09:40 11:00 11:30 00:00
Maximum _ 4,4 C 4,2 C 4,4 C 82 % 1023,5 hPa 0,0 l/m 1,7 km/h
NO (1 Bft)
- - 10 min 0,178 mm 617 W/m -2,8 C 4,4 C 16,1 km/h
N-NO (3 Bft)
100 %
Durchschnitt _ 1,6 C 1,6 C 1,7 C 64 % 1021,7 hPa #0,0 l/m 0,2 km/h (0 Bft) NO - #7:00 h #1,015 mm 196 W/m -4,6 C 1,6 C 2,6 km/h (1 Bft) 98 %
PRIVATE WETTERSTATION BILLIGHEIM-ALLFELD - www.neckar-odenwald-wetter.de - Holger Sonntag